map of RER home
Great Circle Mapper logo
RER - Airport
Location
City:  Retalhuleu, Retalhuleu, Guatemala
Name:Base Aérea del Sur
ICAO / IATA:MGRT / RER

Details
Type:Airport (Aerodrome, Airfield)
Use:Public/Civil, Military
Latitude:14°31'16"N (14.521017)
Longitude:91°41'50"W (-91.697255)
Datum:WGS 1984
Elevation:656 ft (200 m)
Runways:1
Longest:5065 × 100 ft (1544 × 30.5 m), paved

Time
Time Zone:UTC-6
Local Time:

Weather
METAR:MGRT 301500Z 00000KT CAVOK 29/22 Q1013 A2991 FEW080 FEW200 VOL. STA. MARIA Y SANTIAGUITO EN ACTIVIDAD

Related Locations
Nearby:
Farthest:CCK: 11852 mi / 19074 km
West Island (Pulau Panjang) [Cocos (Keeling) Islands], CC

Find:

   beyond  
but within

Other Information
Maps:
NOTAMs:
Links:
Sources:

  
flag of Guatemala   

Sectional Chart

Flight Planning
at skyvector.com

Satellite Image

Google Maps Satellite View

 

Copyright © 2004-2014 Karl L. Swartz. All rights reserved.
The Great Circle Mapper name and logo are trademarks of the Great Circle Mapper.
All other trademarks mentioned herein belong to their respective owners.
Please see credits for attibutions and further copyright information.

  Follow gcmap on Facebook Follow gcmap on Twitter

hCard Microformat

Geo Microformat